When you browse on this site, cookies collect data to enhance your experience and personalize the content and advertising you see.
Visit our Privacy Policy to learn more. By continuing to use the site, you agree to this use of cookies and data.
  • In Portugal
  • List of Countries
  • For 7 days
  • Water Temperature
  • Weather Map
  • Weather Widgets
  • user-avatar
    Login

    Hourly Weather Mahon

    Today, 14 November, Thursday

    Time Temperature Precipitation Wind Pressure Humidity
    00:00 +13°C° 0 mm 3 mps 754 mmHg 79%
    01:00 +13°C° 0 mm 4 mps 753 mmHg 79%
    02:00 +13°C° 0 mm 6 mps 753 mmHg 80%
    03:00 +14°C° 0 mm 7 mps 752 mmHg 80%
    04:00 +13°C° 0 mm 8 mps 752 mmHg 80%
    05:00 +13°C° 0 mm 8 mps 751 mmHg 79%
    06:00 +15°C° 0 mm 9 mps 750 mmHg 79%
    07:00 +14°C° 0 mm 10 mps 750 mmHg 78%
    08:00 +16°C° 0 mm 11 mps 750 mmHg 76%
    09:00 +17°C° 0 mm 12 mps 749 mmHg 74%
    10:00 +17°C° 0.7 mm 12 mps 748 mmHg 73%
    11:00 +18°C° 0.7 mm 13 mps 748 mmHg 71%
    12:00 +18°C° 0.7 mm 13 mps 747 mmHg 69%
    13:00 +17°C° 0.5 mm 13 mps 746 mmHg 67%
    14:00 +17°C° 0.5 mm 13 mps 746 mmHg 65%
    15:00 +15°C° 0.5 mm 12 mps 746 mmHg 63%
    16:00 +14°C° 0.2 mm 12 mps 745 mmHg 69%
    17:00 +13°C° 0.2 mm 11 mps 745 mmHg 75%
    18:00 +12°C° 0.2 mm 11 mps 745 mmHg 81%
    19:00 +12°C° 0.8 mm 9 mps 746 mmHg 74%
    20:00 +12°C° 0.8 mm 8 mps 746 mmHg 68%
    21:00 +11°C° 0.8 mm 7 mps 747 mmHg 62%
    22:00 +11°C° 0 mm 6 mps 747 mmHg 60%
    23:00 +11°C° 0 mm 6 mps 747 mmHg 58%

    Tomorrow, 15 November, Friday

    Time Temperature Precipitation Wind Pressure Humidity
    00:00 +10°C° 0 mm 5 mps 747 mmHg 56%
    01:00 +11°C° 0.1 mm 6 mps 747 mmHg 58%
    02:00 +11°C° 0.1 mm 7 mps 747 mmHg 60%
    03:00 +11°C° 0.1 mm 8 mps 746 mmHg 62%
    04:00 +11°C° 0.4 mm 9 mps 746 mmHg 65%
    05:00 +10°C° 0.4 mm 9 mps 746 mmHg 67%
    06:00 +9°C° 0.4 mm 10 mps 746 mmHg 69%
    07:00 +11°C° 0.3 mm 10 mps 746 mmHg 70%
    08:00 +11°C° 0.3 mm 10 mps 747 mmHg 70%
    09:00 +11°C° 0.3 mm 10 mps 747 mmHg 71%
    10:00 +11°C° 0.2 mm 10 mps 747 mmHg 68%
    11:00 +12°C° 0.2 mm 10 mps 748 mmHg 65%
    12:00 +12°C° 0.2 mm 10 mps 748 mmHg 62%
    13:00 +12°C° 0 mm 9 mps 748 mmHg 60%
    14:00 +12°C° 0 mm 9 mps 748 mmHg 59%
    15:00 +12°C° 0 mm 8 mps 749 mmHg 58%
    16:00 +12°C° 0 mm 8 mps 749 mmHg 57%
    17:00 +11°C° 0 mm 8 mps 750 mmHg 56%
    18:00 +11°C° 0 mm 8 mps 750 mmHg 56%
    19:00 +11°C° 0 mm 8 mps 750 mmHg 57%
    20:00 +11°C° 0 mm 7 mps 751 mmHg 58%
    21:00 +11°C° 0 mm 7 mps 751 mmHg 59%
    22:00 +10°C° 0 mm 6 mps 751 mmHg 59%
    23:00 +10°C° 0 mm 5 mps 752 mmHg 59%

    Day after tomorrow, 16 November, Saturday

    Time Temperature Precipitation Wind Pressure Humidity
    00:00 +11°C° 0 mm 4 mps 752 mmHg 59%
    01:00 +11°C° 0 mm 3 mps 752 mmHg 58%
    02:00 +12°C° 0 mm 2 mps 751 mmHg 57%
    03:00 +12°C° 0 mm 1 mps 751 mmHg 56%
    04:00 +12°C° 0.3 mm 1 mps 751 mmHg 61%
    05:00 +12°C° 0.3 mm 2 mps 751 mmHg 65%
    06:00 +12°C° 0.3 mm 2 mps 751 mmHg 70%
    07:00 +12°C° 0.3 mm 2 mps 752 mmHg 66%
    08:00 +13°C° 0.3 mm 2 mps 752 mmHg 62%
    09:00 +13°C° 0.3 mm 3 mps 752 mmHg 58%
    10:00 +14°C° 0.1 mm 4 mps 752 mmHg 57%
    11:00 +14°C° 0.1 mm 5 mps 751 mmHg 57%
    12:00 +14°C° 0.1 mm 6 mps 751 mmHg 56%
    13:00 +14°C° 0.3 mm 7 mps 751 mmHg 59%
    14:00 +13°C° 0.3 mm 8 mps 751 mmHg 63%
    15:00 +12°C° 0.3 mm 9 mps 750 mmHg 66%
    16:00 +12°C° 0.4 mm 10 mps 750 mmHg 69%
    17:00 +12°C° 0.4 mm 10 mps 751 mmHg 71%
    18:00 +11°C° 0.4 mm 11 mps 751 mmHg 73%
    19:00 +10°C° 0.4 mm 12 mps 751 mmHg 75%
    20:00 +10°C° 0.4 mm 12 mps 751 mmHg 76%
    21:00 +10°C° 0.4 mm 13 mps 752 mmHg 78%
    22:00 +10°C° 0.1 mm 13 mps 752 mmHg 73%
    23:00 +10°C° 0.1 mm 12 mps 752 mmHg 68%

    17 November, Sunday

    Time Temperature Precipitation Wind Pressure Humidity
    00:00 +10°C° 0.1 mm 12 mps 752 mmHg 64%
    01:00 +9°C° 0 mm 12 mps 752 mmHg 68%
    02:00 +9°C° 0 mm 11 mps 751 mmHg 72%
    03:00 +9°C° 0 mm 11 mps 751 mmHg 76%
    04:00 +9°C° 0.1 mm 11 mps 751 mmHg 75%
    05:00 +9°C° 0.1 mm 11 mps 752 mmHg 74%
    06:00 +9°C° 0.1 mm 11 mps 752 mmHg 73%
    07:00 +10°C° 0.1 mm 12 mps 752 mmHg 71%
    08:00 +10°C° 0.1 mm 12 mps 752 mmHg 68%
    09:00 +12°C° 0.1 mm 12 mps 752 mmHg 65%
    10:00 +12°C° 0.1 mm 12 mps 752 mmHg 66%
    11:00 +12°C° 0.1 mm 13 mps 752 mmHg 66%
    12:00 +12°C° 0.1 mm 13 mps 752 mmHg 66%
    13:00 +12°C° 0.1 mm 12 mps 752 mmHg 64%
    14:00 +13°C° 0.1 mm 12 mps 753 mmHg 63%
    15:00 +13°C° 0.1 mm 11 mps 753 mmHg 61%
    16:00 +13°C° 0 mm 10 mps 753 mmHg 61%
    17:00 +13°C° 0 mm 9 mps 753 mmHg 61%
    18:00 +12°C° 0 mm 8 mps 753 mmHg 62%
    19:00 +12°C° 0 mm 7 mps 753 mmHg 62%
    20:00 +11°C° 0 mm 7 mps 753 mmHg 62%
    21:00 +11°C° 0 mm 6 mps 753 mmHg 62%
    22:00 +12°C° 0 mm 5 mps 753 mmHg 59%
    23:00 +12°C° 0 mm 5 mps 753 mmHg 57%

    18 November, Monday

    Time Temperature Precipitation Wind Pressure Humidity
    00:00 +12°C° 0 mm 4 mps 753 mmHg 54%
    01:00 +12°C° 0.1 mm 4 mps 753 mmHg 62%
    02:00 +12°C° 0.1 mm 4 mps 752 mmHg 69%
    03:00 +10°C° 0.1 mm 5 mps 752 mmHg 76%
    04:00 +10°C° 0.2 mm 5 mps 752 mmHg 77%
    05:00 +12°C° 0.2 mm 5 mps 753 mmHg 77%
    06:00 +11°C° 0.2 mm 6 mps 753 mmHg 78%
    07:00 +11°C° 0.2 mm 6 mps 753 mmHg 74%
    08:00 +13°C° 0.2 mm 6 mps 754 mmHg 70%
    09:00 +14°C° 0.2 mm 6 mps 754 mmHg 67%
    10:00 +14°C° 0.3 mm 6 mps 754 mmHg 70%
    11:00 +13°C° 0.3 mm 6 mps 754 mmHg 73%
    12:00 +13°C° 0.3 mm 6 mps 754 mmHg 76%
    13:00 +13°C° 0.5 mm 6 mps 754 mmHg 72%
    14:00 +13°C° 0.5 mm 6 mps 754 mmHg 68%
    15:00 +13°C° 0.5 mm 6 mps 755 mmHg 65%
    16:00 +13°C° 0.1 mm 6 mps 755 mmHg 65%
    17:00 +13°C° 0.1 mm 6 mps 755 mmHg 66%
    18:00 +12°C° 0.1 mm 7 mps 756 mmHg 67%
    19:00 +11°C° 0 mm 7 mps 756 mmHg 67%
    20:00 +11°C° 0 mm 7 mps 757 mmHg 68%
    21:00 +11°C° 0 mm 7 mps 757 mmHg 69%
    22:00 +11°C° 0 mm 7 mps 758 mmHg 69%
    23:00 +11°C° 0 mm 7 mps 758 mmHg 70%

    19 November, Tuesday

    Time Temperature Precipitation Wind Pressure Humidity
    00:00 +11°C° 0 mm 6 mps 758 mmHg 70%
    01:00 +11°C° 0 mm 6 mps 759 mmHg 72%
    02:00 +12°C° 0 mm 5 mps 759 mmHg 73%
    03:00 +10°C° 0 mm 5 mps 759 mmHg 74%
    04:00 +11°C° 0.1 mm 3 mps 759 mmHg 74%
    05:00 +12°C° 0.1 mm 2 mps 760 mmHg 75%
    06:00 +12°C° 0.1 mm 1 mps 760 mmHg 75%
    07:00 +13°C° 0.2 mm 2 mps 760 mmHg 73%
    08:00 +13°C° 0.2 mm 2 mps 761 mmHg 71%
    09:00 +13°C° 0.2 mm 3 mps 761 mmHg 69%
    10:00 +14°C° 0.1 mm 4 mps 761 mmHg 65%
    11:00 +14°C° 0.1 mm 4 mps 761 mmHg 61%
    12:00 +15°C° 0.1 mm 5 mps 761 mmHg 57%
    13:00 +15°C° 0 mm 5 mps 761 mmHg 58%
    14:00 +15°C° 0 mm 5 mps 760 mmHg 59%
    15:00 +15°C° 0 mm 5 mps 760 mmHg 60%
    16:00 +14°C° 0 mm 5 mps 760 mmHg 63%
    17:00 +14°C° 0 mm 6 mps 760 mmHg 66%
    18:00 +13°C° 0 mm 6 mps 760 mmHg 69%
    19:00 +14°C° 0 mm 7 mps 760 mmHg 69%
    20:00 +14°C° 0 mm 7 mps 760 mmHg 70%
    21:00 +14°C° 0 mm 7 mps 761 mmHg 70%
    22:00 +14°C° 0 mm 7 mps 760 mmHg 71%
    23:00 +14°C° 0 mm 7 mps 760 mmHg 71%
    Show more